Tracking 28790 objects as of 19-Apr-2024
HD Live streaming from Space Station
objects crossing your sky now

TELSTAR 12 (ORION 2)

Track TELSTAR 12 (ORION 2) now!
TELSTAR 12 (ORION 2) is classified as:


NORAD ID: 25949
Int'l Code: 1999-059A
Perigee: 36,251.3 km
Apogee: 36,344.4 km
Inclination: 6.7 °
Period: 1,461.9 minutes
Semi major axis: 42668 km
RCS: 31.4284 m2 (large)
Launch date: October 19, 1999
Source: United States (US)
Launch site: FRENCH GUIANA (FRGUI)

Voice and video communications to the Americas, Europe, and Africa
Your satellite tracking list
Your tracking list is empty




NASA's NSSDC Master Catalog

Two Line Element Set (TLE):
1 25949U 99059A   24109.61101993 -.00000081  00000-0  00000-0 0  9997
2 25949   6.7169  71.3060 0010903 243.7046 138.5308  0.98500092 89408
Source of the keplerian elements: AFSPC